Weather History for MZBZ - March, 2013

Change the Weather History Date:

Thursday, March 21, 2013

  Actual Average Record
Temperature  
Mean Temperature 82 °F -  
Max Temperature 89 °F 86 °F - ()
Min Temperature 74 °F 72 °F - ()
Cooling Degree Days 16    
Growing Degree Days 32 (Base 50)    
Moisture  
Dew Point 75 °F    
Average Humidity 78    
Maximum Humidity 94    
Minimum Humidity 62    
Precipitation  
Precipitation 0.00 in 0.07 in - ()
Sea Level Pressure  
Sea Level Pressure 29.84 in    
Wind  
Wind Speed 3 mph ()    
Max Wind Speed 10 mph    
Max Gust Speed -    
Visibility 8.8 miles    
Events      
T = Trace of Precipitation, MM = Missing Value Source: Averaged Metar Reports

Daily Weather History Graph

Daily Weather History Graph

Search for Another Location

Airport or City:

Trip Planner

Search our weather history database for the weather conditions in past years. The results will help you decide how hot, cold, wet, or windy it might be!

Date:

Astronomy

Mar. 21, 2013 Rise Set
Actual Time 5:56 AM CST 6:04 PM CST
Civil Twilight 5:34 AM CST 6:26 PM CST
Nautical Twilight 5:09 AM CST 6:51 PM CST
Astronomical Twilight 4:44 AM CST 7:16 PM CST
Moon 1:14 PM CST (3/21) 1:36 AM CST (3/21)
Length of Visible Light 12h 51m
Length of Day
12h 08m
Waxing Gibbous, 69% of the Moon is Illuminated
Mar 21
Waxing Gibbous
Mar 27
Full
Apr 2
Last Quarter
Apr 10
New
Apr 18
First Quarter

Hourly Weather History & Observations

Time (CST) Temp. Heat Index Dew Point Humidity Pressure Visibility Wind Dir Wind Speed Gust Speed Precip Events Conditions
12:00 AM 78 °F - 75 °F 88% 29.85 in 12 mi Calm Calm - -   Mostly Cloudy
3:00 AM 77 °F - 75 °F 91% 29.83 in 12 mi Calm Calm - -   Partly Cloudy
5:00 AM 75.2 °F - 73.4 °F 94% 29.83 in 6.2 mi Calm Calm - N/A   Scattered Clouds
6:00 AM 75 °F - 73 °F 92% 29.86 in 12 mi West 2.3 mph - -   Mostly Cloudy
6:00 AM 75.2 °F - 73.4 °F 94% 29.86 in 6.2 mi West 2.3 mph - N/A   Mostly Cloudy
7:00 AM 77.0 °F - 75.2 °F 94% 29.86 in 6.2 mi Calm Calm - N/A   Mostly Cloudy
8:00 AM 80.6 °F 87.1 °F 77.0 °F 89% 29.89 in 6.2 mi SE 2.3 mph - N/A   Mostly Cloudy
9:00 AM 83 °F - 75 °F 70% 29.91 in 12 mi East 6.9 mph - -   Mostly Cloudy
9:00 AM 84.2 °F 92.3 °F 75.2 °F 74% 29.90 in 6.2 mi East 6.9 mph - N/A   Mostly Cloudy
10:00 AM 86.0 °F 93.4 °F 73.4 °F 66% 29.91 in 6.2 mi East 5.8 mph - N/A   Mostly Cloudy
11:00 AM 84.2 °F 92.3 °F 75.2 °F 74% 29.89 in 6.2 mi ESE 4.6 mph - N/A   Scattered Clouds
12:00 PM 85 °F - 75 °F 65% 29.86 in 14 mi East 5.8 mph - -   Partly Cloudy
12:00 PM 84.2 °F 92.3 °F 75.2 °F 74% 29.86 in 6.2 mi East 5.8 mph - N/A   Scattered Clouds
1:00 PM 87.8 °F 95.6 °F 73.4 °F 62% 29.83 in 6.2 mi East 6.9 mph - N/A   Partly Cloudy
2:00 PM 86.0 °F 95.1 °F 75.2 °F 70% 29.81 in 6.2 mi East 8.1 mph - N/A   Partly Cloudy
3:00 PM 87 °F - 76 °F 62% 29.79 in 16 mi East 10.4 mph - -   Scattered Clouds
3:00 PM 87.8 °F 97.6 °F 75.2 °F 66% 29.78 in 6.2 mi East 10.4 mph - N/A   Partly Cloudy
4:00 PM 86.0 °F 95.1 °F 75.2 °F 70% 29.77 in 6.2 mi ESE 8.1 mph - N/A   Partly Cloudy
5:00 PM 84.2 °F 92.3 °F 75.2 °F 74% 29.78 in 6.2 mi SE 5.8 mph - N/A   Partly Cloudy
6:00 PM 80 °F - 73 °F 74% 29.80 in 16 mi ESE 4.6 mph - -   Scattered Clouds
6:00 PM 80.6 °F 85.4 °F 73.4 °F 79% 29.79 in 6.2 mi ESE 4.6 mph - N/A   Partly Cloudy
9:00 PM 77 °F - 73 °F 84% 29.86 in 12 mi ESE 3.5 mph - -   Scattered Clouds